Regional Weather Roundup
Issued by NWS

Home | Current Version | Previous Version | Graphics & Text | Print | Product List | Glossary On
Versions: 1 2 3 4 5 6 7 8 9 10 11 12 13 14 15 16 17 18 19 20 21 22 23 24 25 26 27 28 29 30 31 32 33 34 35 36 37 38 39 40 41 42 43 44 45 46 47 48 49 50
004
ASUS43 KMKX 030121
RWRWI

WISCONSIN REGIONAL WEATHER ROUNDUP
NATIONAL WEATHER SERVICE MILWAUKEE/SULLIVAN WI
700 PM CST FRI DEC 02 2016

NOTE: "FAIR" INDICATES FEW OR NO CLOUDS BELOW 12,000 FEET WITH NO
SIGNIFICANT WEATHER AND/OR OBSTRUCTIONS TO VISIBILITY.

WIZ001-002-006>008-014>016-023>028-030200-
NORTHWEST WISCONSIN

CITY           SKY/WX    TMP DP  RH WIND       PRES   REMARKS
SUPERIOR ARPT  CLOUDY    30  25  80 SW3       30.27R
ASHLAND        CLOUDY    30  24  78 SW7       30.26R WCI  23
HAYWARD        CLOUDY    28  22  78 CALM      30.25S
SIREN          CLOUDY    30  24  78 CALM      30.27S
CUMBERLAND     CLOUDY    30  23  74 NW7       30.25S WCI  23
RICE LAKE      CLOUDY    30  24  78 CALM      30.28S
CHETEK         CLOUDY    30  24  76 CALM      30.27S
LADYSMITH      CLOUDY    30  24  78 SW3       30.27S
EAU CLAIRE     CLOUDY    31  25  78 W5        30.27S WCI  26
MENOMONIE      CLOUDY    32  24  73 W8        30.28S WCI  25
NEW RICHMOND   CLOUDY    30  25  79 NW6       30.28S WCI  24
OSCEOLA        CLOUDY    31  25  78 W6        30.31S WCI  25
$$

WIZ003>005-009-010-017-018-030200-
NORTH CENTRAL WISCONSIN

CITY           SKY/WX    TMP DP  RH WIND       PRES   REMARKS
MANITOWISH WTR LGT SNOW  28  28 100 W5        30.20S WCI  23
ARBOR VITAE    CLOUDY    32  29  90 W3        30.20S
WOODRUFF       CLOUDY    32  29  90 W3        30.20S
RHINELANDER    CLOUDY    30  28  92 W6        30.21R WCI  24
EAGLE RIVER    LGT SNOW  29  25  84 CALM      30.20R
LAND O LAKES   LGT SNOW  30  28  94 W5        30.20R WCI  25
PHILLIPS       CLOUDY    28  26  94 CALM      30.23R
TOMAHAWK       CLOUDY    29  26  88 CALM      30.23R
MEDFORD        CLOUDY    28  23  80 W5        30.23S WCI  23
MERRILL        CLOUDY    31  25  78 W5        30.25R WCI  26
$$

WIZ029-030-035-036-043>047-030200-
CENTRAL WISCONSIN

CITY           SKY/WX    TMP DP  RH WIND       PRES   REMARKS
WAUSAU         CLOUDY    31  24  75 W8        30.23R WCI  23
MOSINEE        CLOUDY    30  27  86 W9        30.25R WCI  22
MARSHFIELD     CLOUDY    30  22  72 W5        30.25R WCI  25
STEVENS POINT  CLOUDY    29  22  75 W5        30.26R WCI  24
WAUPACA        CLOUDY    34  26  71 W7        30.27R WCI  28
WAUTOMA        CLOUDY    31  24  75 W9        30.28R WCI  23
WISC RAPIDS    CLOUDY    31  23  72 NW5       30.28R WCI  26
CAMP DOUGLAS   CLOUDY    30  24  76 W3        30.27S
$$

WIZ011>013-019>022-031-037>040-048>050-030200-
NORTHEAST WISCONSIN

CITY           SKY/WX    TMP DP  RH WIND       PRES   REMARKS
ANTIGO         CLOUDY    30  26  83 W7        30.21R WCI  23
SHAWANO        CLOUDY    36  27  70 W7        30.25R WCI  30
OCONTO         CLOUDY    35  27  74 W6        30.23R WCI  30
STURGEON BAY   CLOUDY    36  29  75 W8        30.22R WCI  30
GREEN BAY      CLOUDY    36  29  75 W7        30.25R WCI  30
MANITOWOC      CLOUDY    34  26  72 MISG      30.25R
APPLETON       CLOUDY    32  23  69 W6        30.23R WCI  26
CLINTONVILLE   CLOUDY    34  27  75 W7        30.25R WCI  28
OSHKOSH        CLOUDY    32  24  72 W6        30.26R WCI  26
$$

WIZ032>034-041-042-053>061-030200-
SOUTHWEST WISCONSIN

CITY           SKY/WX    TMP DP  RH WIND       PRES   REMARKS
LA CROSSE      CLOUDY    35  23  61 NW10      30.29S WCI  27
SPARTA         CLOUDY    32  24  72 NW6       30.29S WCI  26
VIROQUA        CLOUDY    30  24  78 NW7       30.26R WCI  23
BOSCOBEL       CLOUDY    34  23  64 CALM      30.30R
PRAIRIE DU CHI CLOUDY    32  21  64 W10       30.31R WCI  24
PLATTEVILLE    CLOUDY    32  27  80 NW6       30.29S WCI  26
$$

WIZ056-057-062-063-064-067-068-030200-
SOUTH CENTRAL WISCONSIN

CITY           SKY/WX    TMP DP  RH WIND       PRES   REMARKS
REEDSBURG      CLOUDY    31  23  72 NW7       30.28R WCI  24
BARABOO/DELLS  CLOUDY    31  22  69 NW6       30.27R WCI  25
LONE ROCK      CLOUDY    33  23  66 NW5       30.30R WCI  29
MINERAL POINT  CLOUDY    32  27  80 W5        30.28R WCI  27
MADISON        CLOUDY    31  22  69 NW8       30.27R WCI  23
MIDDLETON      CLOUDY    32  25  74 W7        30.28R WCI  26
WATERTOWN      CLOUDY    32  24  72 NW8       30.26S WCI  25
MONROE         CLOUDY    32  23  69 NW7       30.27R WCI  26
JANESVILLE     CLOUDY    34  27  75 NW3       30.28R
$$

WIZ051-052-058>065-066-070>072-030200-
SOUTHEAST WISCONSIN

CITY           SKY/WX    TMP DP  RH WIND       PRES   REMARKS
MILWAUKEE      CLOUDY    35  23  61 NW9       30.26S WCI  28
WAUKESHA       NOT AVBL
MILWAUKEE/TIMM CLOUDY    34  21  60 NW7       30.27S WCI  28
RACINE         CLOUDY    34  23  64 NW3       30.28R
BURLINGTON     CLOUDY    32  25  74 CALM      30.27R
KENOSHA        CLOUDY    34  24  67 NW7       30.27R WCI  28
FOND DU LAC    CLOUDY    33  23  66 NW7       30.26R WCI  27
SHEBOYGAN      CLOUDY    33  25  72 NW7       30.26R WCI  27
WEST BEND      CLOUDY    32  27  80 NW6       30.25S WCI  26
JUNEAU         CLOUDY    31  23  73 NW3       30.27S
$$

LSZ147-162-030200-
LAKE SUPERIOR

STATION/POSITION TIME  TEMP    WIND        PRES    WAVE
                       AIR SEA DIR/SP/G            HT/PER
                 (UTC) (F)     (DEG/KT/KT) (MB)    (FT/S)
DEVILS ISLAND    0100   33     260/  8/ 10 1024.8R
PORT WING        0030   31     210/  5/  9 1024.4S
SAXON HARBOR     0040   31     220/  3/  6 1024.4R
$$

LMZ867-665-643>646-030200-
LAKE MICHIGAN

STATION/POSITION TIME  TEMP    WIND        PRES    WAVE
                       AIR SEA DIR/SP/G            HT/PER
                 (UTC) (F)     (DEG/KT/KT) (MB)    (FT/S)
CHAMBERS ISLAND  0040   37     250/  4/  9 1022.4R
NORTHPORT PIER   0040   38     290/  8/ 16 1022.4R
SISTER BAY       0008   38     330/ 16/ 17   N/A
ALGOMA LAKESHORE 0051          280/  8/ 10   N/A
KEWAUNEE LAKESHO 0048   35     270/  8/ 11 1022.9R
SHEBOYGAN LAKESH 0100   34     290/ 12/ 15 1025.1R
PORT WASHINGTON  0030   34     290/  4/  9 1025.7R
MILWAUKEE LAKESH 0100   34     310/  7/ 11   N/A
S MID LAKE BUOY  0050   38 49  310/ 12/ 16 1024.6R   2/ 5
KENOSHA   LAKESH 0100   34     340/  7/ 11 1025.4
$$

TC  - TEMPERATURE IN CELSIUS
VSB - VISIBILITY IN STATUTE MILES
WCI - WIND CHILL INDEX
HX  - HEAT INDEX





USA.gov is the U.S. government's official web portal to all federal, state and local government web resources and services.